Visibility
15.0 14.9 6.1 0.4 1.6 4.0 5.8 14.3 7.2 0.1 14.2 0.0 7.3 15.0 15.0 15.0 15.0 15.0 15.0 15.0 15.0 15.0 15.0 15.0 15.0 15.0 15.0 15.0 15.0 15.0 15.0 15.0 15.0 15.0 15.0 15.0 15.0 15.0 15.0 2.0 5.7 0.6 0.6 11.3
15.0 7.6 8.0 2.6 0.6 2.9 12.6 15.0 0.1 9.2 0.3 0.0 0.1 11.9 15.0 15.0 15.0 15.0 15.0 15.0 15.0 15.0 15.0 0.2 15.0 15.0 15.0 15.0 15.0 15.0 15.0 12.0 0.0 13.2 15.0 15.0 15.0 15.0 15.0 14.3 0.4 14.8 3.4 11.2
15.0 10.2 4.5 2.7 3.3 2.4 9.7 0.5 0.0 0.1 0.0 15.0 15.0 4.3 0.5 15.0 15.0 15.0 15.0 15.0 15.0 15.0 15.0 15.0 15.0 15.0 15.0 15.0 15.0 15.0 15.0 10.7 0.2 0.8 15.0 10.4 0.1 15.0 15.0 10.6 0.1 11.7 4.1 15.0
15.0 9.0 4.5 4.6 2.8 2.5 14.7 12.8 4.5 11.2 0.0 0.1 14.9 15.0 11.3 15.0 15.0 15.0 15.0 7.7 15.0 15.0 0.0 8.7 15.0 15.0 15.0 15.0 13.1 13.0 6.0 0.1 0.1 2.4 15.0 15.0 11.2 0.2 6.2 10.1 0.3 0.3 13.6 9.5
15.0 15.0 4.8 2.1 3.8 2.0 7.7 0.0 0.2 15.0 1.4 15.0 15.0 15.0 0.8 15.0 15.0 3.4 1.2 15.0 15.0 15.0 15.0 15.0 13.7 15.0 11.9 15.0 0.4 12.0 11.7 0.0 0.4 0.4 15.0 15.0 15.0 15.0 15.0 8.8 5.0 15.0 11.2 14.2
15.0 14.1 8.5 10.8 2.9 1.9 5.9 14.4 15.0 15.0 0.4 1.0 5.8 3.5 15.0 15.0 15.0 8.7 15.0 15.0 15.0 15.0 15.0 11.7 15.0 15.0 15.0 15.0 7.3 0.2 0.0 0.0 0.3 1.6 15.0 15.0 15.0 15.0 15.0 15.0 15.0 15.0 15.0 15.0
15.0 15.0 12.5 3.3 3.1 2.0 14.8 15.0 15.0 8.5 0.0 6.0 3.1 15.0 15.0 15.0 15.0 15.0 15.0 15.0 15.0 6.9 15.0 9.6 14.2 7.5 6.4 9.7 5.8 15.0 0.0 0.0 0.1 0.5 14.3 0.4 15.0 15.0 15.0 15.0 15.0 15.0 15.0 15.0
15.0 15.0 8.7 4.9 3.6 2.0 4.9 11.1 15.0 15.0 0.3 12.3 15.0 14.7 14.9 15.0 15.0 15.0 15.0 7.7 15.0 14.7 10.0 0.1 0.1 0.1 2.9 0.0 0.0 0.0 0.0 0.0 0.1 0.2 13.6 15.0 15.0 15.0 15.0 15.0 15.0 15.0 15.0 15.0
14.2 11.9 2.4 7.5 3.0 4.2 1.9 3.3 14.9 14.9 15.0 7.0 15.0 15.0 15.0 0.2 0.1 0.1 0.1 1.3 5.7 6.2 0.1 0.0 0.1 0.5 15.0 15.0 15.0 11.2 0.0 0.0 0.1 0.4 0.4 15.0 15.0 15.0 15.0 15.0 15.0 15.0 15.0 15.0
6.5 9.4 3.4 12.2 6.6 5.4 2.4 0.1 9.3 15.0 1.4 0.2 15.0 15.0 5.6 15.0 9.8 2.2 0.0 0.0 0.1 0.1 0.0 0.0 1.6 14.1 15.0 15.0 15.0 15.0 6.4 0.3 0.4 7.1 5.8 15.0 15.0 15.0 15.0 15.0 15.0 15.0 15.0 15.0
5.6 6.0 6.2 8.5 6.6 4.5 2.6 0.1 1.3 12.8 2.0 0.1 1.3 4.6 3.6 1.7 4.8 5.0 0.0 0.0 0.0 0.1 0.0 0.1 9.8 15.0 15.0 15.0 15.0 15.0 15.0 15.0 15.0 15.0 11.2 15.0 15.0 15.0 15.0 15.0 15.0 15.0 15.0 15.0
4.1 1.4 2.0 3.0 4.2 4.4 3.6 0.1 2.3 14.1 3.0 0.1 0.2 0.7 0.3 0.1 6.1 1.6 0.2 0.3 11.7 11.8 0.2 0.8 14.6 15.0 15.0 15.0 15.0 15.0 15.0 15.0 15.0 15.0 15.0 15.0 15.0 15.0 15.0 15.0 15.0 15.0 15.0 15.0
13.9 4.8 0.4 2.2 4.6 2.6 5.5 5.0 2.9 3.8 1.8 0.1 1.9 0.2 0.1 8.9 6.1 5.6 1.2 0.5 15.0 15.0 15.0 15.0 15.0 15.0 15.0 15.0 15.0 15.0 15.0 15.0 15.0 15.0 15.0 15.0 15.0 15.0 15.0 15.0 15.0 15.0 15.0 15.0
0.9 2.3 0.6 0.7 1.2 3.7 6.0 1.7 1.1 4.3 1.7 0.2 0.1 0.1 0.0 6.2 11.4 10.0 8.4 10.0 15.0 15.0 15.0 15.0 15.0 15.0 15.0 15.0 15.0 15.0 15.0 15.0 15.0 15.0 15.0 15.0 15.0 15.0 15.0 15.0 15.0 15.0 15.0 15.0
0.4 0.3 2.9 7.8 5.7 7.3 4.1 2.9 0.2 4.3 4.5 0.1 0.1 3.4 6.0 11.3 15.0 15.0 15.0 15.0 15.0 15.0 15.0 15.0 15.0 15.0 15.0 15.0 15.0 15.0 15.0 15.0 15.0 15.0 15.0 15.0 15.0 15.0 15.0 15.0 15.0 15.0 15.0 15.0
2.7 10.2 9.8 15.0 15.0 14.0 5.3 0.3 2.9 3.4 4.2 1.7 0.2 3.1 8.3 15.0 15.0 15.0 15.0 15.0 15.0 15.0 15.0 15.0 15.0 15.0 15.0 15.0 15.0 15.0 15.0 15.0 15.0 15.0 15.0 15.0 15.0 15.0 15.0 15.0 15.0 15.0 15.0 15.0
12.5 14.5 7.4 3.4 2.7 3.0 2.9 3.9 7.1 10.7 13.3 0.8 0.2 0.5 8.8 15.0 15.0 15.0 15.0 15.0 15.0 15.0 15.0 15.0 15.0 15.0 15.0 15.0 15.0 15.0 15.0 15.0 15.0 15.0 15.0 15.0 15.0 15.0 15.0 15.0 15.0 15.0 15.0 15.0
7.7 2.9 2.5 2.8 3.7 5.7 4.9 6.9 7.7 9.0 7.8 9.3 0.4 1.0 6.0 15.0 12.2 15.0 15.0 15.0 15.0 15.0 15.0 15.0 15.0 15.0 15.0 15.0 15.0 15.0 15.0 15.0 15.0 15.0 15.0 15.0 15.0 15.0 15.0 15.0 15.0 9.7 3.6 8.7
3.0 3.0 4.4 5.2 4.5 3.3 10.8 15.0 15.0 15.0 15.0 5.8 6.3 6.0 15.0 15.0 15.0 15.0 15.0 15.0 15.0 15.0 15.0 15.0 15.0 15.0 15.0 15.0 15.0 15.0 15.0 15.0 15.0 15.0 15.0 15.0 10.6 15.0 15.0 9.6 5.8 2.6 6.5 12.9
8.9 5.9 4.3 7.1 8.6 15.0 15.0 15.0 15.0 14.4 15.0 15.0 15.0 15.0 14.8 15.0 15.0 15.0 15.0 15.0 15.0 15.0 15.0 15.0 15.0 15.0 15.0 15.0 15.0 15.0 15.0 15.0 15.0 14.9 10.9 6.0 6.5 8.1 12.0 15.0 15.0 10.6 2.7 7.0
3.7 7.7 7.2 15.0 15.0 15.0 15.0 0.1 15.0 15.0 15.0 15.0 15.0 15.0 15.0 15.0 15.0 15.0 15.0 15.0 15.0 15.0 11.8 15.0 15.0 15.0 15.0 15.0 15.0 15.0 15.0 15.0 14.6 15.0 15.0 11.7 9.2 6.9 3.6 8.7 15.0 15.0 8.0 7.2
13.4 15.0 15.0 15.0 15.0 15.0 14.2 15.0 15.0 15.0 15.0 15.0 15.0 15.0 15.0 15.0 15.0 15.0 15.0 15.0 15.0 15.0 14.8 13.0 15.0 15.0 15.0 15.0 15.0 15.0 15.0 15.0 12.8 14.7 7.0 0.4 0.3 0.0 5.1 15.0 15.0 9.8 9.1 11.2
15.0 15.0 10.5 15.0 15.0 15.0 15.0 15.0 15.0 15.0 15.0 15.0 15.0 15.0 15.0 15.0 15.0 15.0 15.0 15.0 15.0 15.0 13.5 15.0 15.0 15.0 15.0 15.0 15.0 15.0 15.0 15.0 0.8 0.0 0.0 0.0 0.1 0.8 0.2 0.7 15.0 15.0 15.0 15.0
15.0 13.0 15.0 15.0 15.0 15.0 15.0 15.0 15.0 15.0 15.0 15.0 15.0 15.0 15.0 15.0 15.0 15.0 15.0 15.0 15.0 15.0 15.0 15.0 11.8 15.0 15.0 15.0 5.6 0.1 0.7 14.5 5.6 3.5 1.8 1.5 1.9 3.1 12.3 5.7 4.6 4.3 5.1 7.0
15.0 15.0 15.0 7.0 8.8 14.0 14.5 15.0 15.0 15.0 15.0 15.0 15.0 15.0 15.0 15.0 15.0 15.0 15.0 12.5 15.0 15.0 15.0 12.5 8.6 15.0 13.2 13.1 15.0 15.0 15.0 15.0 11.4 8.6 10.4 9.1 15.0 15.0 15.0 15.0 8.2 8.2 11.3 15.0
15.0 15.0 10.9 11.7 13.1 4.5 14.8 15.0 15.0 15.0 15.0 15.0 15.0 15.0 15.0 15.0 15.0 15.0 15.0 15.0 15.0 15.0 15.0 8.3 14.2 15.0 10.3 14.7 15.0 15.0 15.0 12.2 12.0 10.6 11.1 12.0 15.0 15.0 15.0 15.0 11.8 15.0 7.4 2.0
15.0 6.6 9.5 15.0 15.0 14.1 15.0 15.0 15.0 15.0 15.0 15.0 15.0 15.0 15.0 15.0 15.0 15.0 15.0 15.0 15.0 15.0 14.7 15.0 15.0 15.0 15.0 15.0 15.0 15.0 9.3 9.7 14.5 15.0 15.0 15.0 15.0 15.0 15.0 15.0 15.0 15.0 15.0 15.0